Flag for Canada Weather past 2 weeks in Hopedale, Newfoundland and Labrador, Canada

Now
62 °F

Cool.


Feels Like: 62 °F
Forecast: 51 / 58 °F
Wind: 5 mph from Southeast

Location: Hopedale

Current Time: Jul 23, 2014 at 12:33:37 PM

Latest Report: Jul 23, 2014 at 11:00 AM


Visibility: N/A

Pressure: 29.50 "Hg

Humidity: 81%

Dew point: 56 °F

Location of HopedaleLocation

Historic Weather in Hopedale — Graph

°F

Hopedale temperature yesterday

Maximum temperature yesterday: 74 °F (at 1:00 PM)
Minimum temperature yesterday: 57 °F (at 9:00 PM)
Average temperature yesterday: 66 °F

Past Weeks' High & Low Weather Summary

 TemperatureHumidityPressure
High79 °F (Jul 20, 5:00 PM)100% (Jul 13, 12:00 AM)30.06 "Hg (Jul 13, 12:00 AM)
Low40 °F (Jul 16, 5:00 AM)42% (Jul 11, 2:00 PM)29.50 "Hg (Jul 23, 2:00 AM)
Average51 °F82%29.84 "Hg
* Reported Jul 8 11:00 AM — Jul 23 11:00 AM, Hopedale, Weather by CustomWeather, © 2014

Note: Actual official high and low records may vary slightly from our data, if they occured in-between our weather recording intervals... More about our weather records

Advertising

Hopedale weather history for previous 24 hours

 ConditionsComfort  
Time TempWeatherWind HumidityBarometerVisibility
11:00 AM
Jul 23
62 °FCool.5 mph81%29.50 "HgN/A
10:00 AM62 °FCool.6 mph72%29.50 "HgN/A
9:00 AM56 °FCool.8 mph85%29.50 "HgN/A
8:00 AM58 °FCool.7 mph86%29.50 "HgN/A
7:00 AM57 °FCool.7 mph84%29.52 "HgN/A
6:00 AM59 °FCool.8 mph82%29.51 "HgN/A
5:00 AM60 °FCool.8 mph84%29.51 "HgN/A
3:00 AM59 °FCool.8 mph85%29.51 "HgN/A
2:00 AM62 °FCool.10 mph81%29.50 "HgN/A
1:00 AM61 °FCool.10 mph86%29.51 "HgN/A
12:00 AM62 °FCool.8 mph90%29.51 "HgN/A
11:00 PM
Jul 22
63 °FMild.13 mph89%29.51 "HgN/A
10:00 PM59 °FCool.6 mph91%29.51 "HgN/A
9:00 PM57 °FCool.5 mph91%29.51 "HgN/A
8:00 PM58 °FCool.6 mph98%29.51 "HgN/A
1:00 PM74 °FMild.13 mph60%29.58 "HgN/A
12:00 PM73 °FMild.13 mph62%29.60 "HgN/A
Weather by CustomWeather, © 2014

See weather overviewHow to use our weather pages